Location: Newark
(51.0500°N, 12.4500°E)
Time: 07:44:47
(UTC+00:00)

Vanguard 1 - Pass Details

Date: 23 February 2020
Orbit: 649 x 3833 km, 34.2° (Epoch: 05 April)

Event Time Altitude Azimuth Distance (km) Brightness Sun altitude
Rises 08:37:10 0° 244° (WSW) 7,872 14.5 19.2°
Reaches altitude 10° 08:43:22 10° 239° (WSW) 6,620 14.2 19.8°
Maximum altitude 09:00:55 40° 180° (S) 3,489 13.9 21.6°
Drops below altitude 10° 09:11:47 10° 116° (ESE) 4,173 14.5 22.6°
Sets 09:14:41 0° 108° (ESE) 4,812 14.4 22.9°
